Location: Hemaruka
(51.7801°N, 111.0917°W)
Time: 20:58:59
(UTC+00:00)

SPROUT - Visible Passes

Search period start: 29 November 2023 00:00
Search period end: 09 December 2023 00:00
Orbit: 524 x 530 km, 98.0° (Epoch: 29 November)

Date Brightness Start Highest point End Pass type
(mag) Time Alt. Az. Time Alt. Az. Time Alt. Az.
01 Dec ? 00:12:22 10° NNW 00:14:00 12° NW 00:15:38 10° W visible
02 Dec ? 00:00:20 10° NNW 00:02:38 15° WNW 00:04:55 10° W visible
08 Dec ? 00:25:01 10° NW 00:25:32 10° NW 00:26:02 10° WNW visible
